QPF
0.00 0.00 0.00 0.00 0.00 0.00 0.00 0.00 0.00 0.00 0.00 0.00 0.00 0.00 0.00 0.00 0.00 0.00 0.00 0.00 0.00 0.00 0.00 0.01 0.01 0.01 0.01 0.01 0.01 0.01 0.01 0.01 0.01 0.01 0.01 0.01 0.01 0.01 0.00 0.00 0.00 0.00 0.01 0.01 0.00 0.00 0.00 0.00 0.00
0.00 0.00 0.00 0.00 0.00 0.00 0.00 0.00 0.00 0.00 0.00 0.00 0.00 0.00 0.00 0.00 0.00 0.00 0.00 0.00 0.00 0.00 0.00 0.00 0.01 0.01 0.01 0.01 0.01 0.01 0.01 0.01 0.01 0.01 0.01 0.01 0.01 0.00 0.00 0.00 0.00 0.00 0.00 0.00 0.00 0.00 0.00 0.00 0.00
0.00 0.00 0.00 0.00 0.00 0.00 0.00 0.00 0.00 0.00 0.00 0.00 0.00 0.00 0.00 0.00 0.00 0.00 0.00 0.00 0.00 0.00 0.00 0.00 0.00 0.01 0.01 0.01 0.01 0.02 0.02 0.01 0.01 0.01 0.01 0.01 0.01 0.00 0.00 0.00 0.00 0.00 0.00 0.00 0.00 0.00 0.00 0.00 0.00
0.00 0.00 0.00 0.00 0.00 0.00 0.00 0.00 0.00 0.00 0.00 0.00 0.00 0.00 0.00 0.00 0.00 0.00 0.00 0.00 0.00 0.00 0.00 0.00 0.01 0.01 0.01 0.01 0.02 0.02 0.02 0.01 0.01 0.01 0.01 0.01 0.00 0.00 0.00 0.00 0.00 0.00 0.00 0.00 0.00 0.00 0.00 0.00 0.00
0.00 0.00 0.00 0.00 0.00 0.00 0.00 0.00 0.00 0.00 0.00 0.00 0.00 0.00 0.00 0.00 0.00 0.00 0.00 0.00 0.00 0.00 0.00 0.00 0.01 0.01 0.01 0.01 0.02 0.02 0.01 0.01 0.01 0.01 0.01 0.01 0.00 0.00 0.00 0.00 0.00 0.00 0.00 0.00 0.00 0.00 0.00 0.00 0.00
0.00 0.00 0.00 0.00 0.00 0.00 0.00 0.00 0.00 0.00 0.00 0.00 0.00 0.00 0.00 0.00 0.00 0.00 0.00 0.00 0.00 0.00 0.00 0.00 0.01 0.02 0.02 0.02 0.02 0.02 0.02 0.01 0.01 0.01 0.02 0.01 0.00 0.00 0.00 0.00 0.00 0.00 0.00 0.00 0.00 0.00 0.00 0.00 0.00
0.00 0.00 0.00 0.00 0.00 0.00 0.00 0.00 0.00 0.00 0.00 0.00 0.00 0.00 0.00 0.00 0.00 0.00 0.00 0.00 0.00 0.00 0.00 0.01 0.02 0.02 0.02 0.02 0.02 0.02 0.02 0.01 0.01 0.02 0.02 0.01 0.01 0.00 0.00 0.00 0.00 0.00 0.00 0.00 0.00 0.00 0.00 0.00 0.00
0.00 0.00 0.00 0.00 0.00 0.00 0.00 0.00 0.00 0.00 0.00 0.00 0.00 0.00 0.00 0.00 0.00 0.00 0.00 0.00 0.00 0.00 0.00 0.01 0.02 0.02 0.02 0.02 0.02 0.02 0.02 0.01 0.01 0.02 0.02 0.01 0.01 0.01 0.00 0.00 0.00 0.00 0.00 0.00 0.00 0.00 0.00 0.00 0.00
0.00 0.00 0.00 0.00 0.00 0.00 0.00 0.00 0.00 0.00 0.00 0.00 0.00 0.00 0.00 0.00 0.00 0.00 0.00 0.00 0.00 0.00 0.00 0.01 0.02 0.03 0.02 0.02 0.02 0.02 0.02 0.01 0.02 0.02 0.01 0.01 0.01 0.01 0.00 0.00 0.00 0.00 0.00 0.00 0.00 0.00 0.00 0.00 0.00
0.00 0.00 0.00 0.00 0.00 0.00 0.00 0.00 0.00 0.00 0.00 0.00 0.00 0.00 0.00 0.00 0.00 0.00 0.00 0.00 0.00 0.00 0.00 0.01 0.02 0.03 0.03 0.01 0.01 0.02 0.02 0.01 0.01 0.01 0.01 0.01 0.01 0.00 0.00 0.00 0.00 0.00 0.00 0.00 0.00 0.00 0.00 0.00 0.00
0.00 0.00 0.00 0.00 0.00 0.00 0.00 0.00 0.00 0.00 0.00 0.00 0.00 0.00 0.00 0.00 0.00 0.00 0.00 0.00 0.00 0.00 0.00 0.01 0.02 0.03 0.02 0.02 0.01 0.02 0.02 0.01 0.01 0.01 0.01 0.01 0.01 0.00 0.00 0.00 0.00 0.00 0.00 0.00 0.00 0.00 0.00 0.00 0.00
0.00 0.00 0.00 0.00 0.00 0.00 0.00 0.00 0.00 0.00 0.00 0.00 0.00 0.00 0.00 0.00 0.00 0.00 0.00 0.00 0.00 0.00 0.00 0.01 0.02 0.03 0.02 0.02 0.02 0.02 0.02 0.01 0.01 0.01 0.01 0.00 0.00 0.01 0.00 0.00 0.00 0.00 0.00 0.00 0.00 0.00 0.00 0.00 0.00
0.00 0.00 0.00 0.00 0.00 0.00 0.00 0.00 0.00 0.00 0.00 0.00 0.00 0.00 0.00 0.00 0.00 0.00 0.00 0.00 0.00 0.00 0.00 0.01 0.01 0.02 0.02 0.02 0.02 0.01 0.01 0.01 0.01 0.01 0.00 0.00 0.00 0.00 0.00 0.00 0.00 0.00 0.00 0.00 0.00 0.00 0.00 0.00 0.00
0.00 0.00 0.00 0.00 0.00 0.00 0.00 0.00 0.00 0.00 0.00 0.00 0.00 0.00 0.00 0.00 0.00 0.00 0.00 0.00 0.00 0.00 0.00 0.00 0.01 0.01 0.02 0.02 0.02 0.01 0.01 0.01 0.01 0.01 0.01 0.00 0.00 0.00 0.00 0.00 0.00 0.00 0.00 0.00 0.00 0.00 0.00 0.00 0.00
0.00 0.00 0.00 0.00 0.00 0.00 0.00 0.00 0.00 0.00 0.00 0.00 0.00 0.00 0.00 0.00 0.00 0.00 0.00 0.00 0.00 0.00 0.00 0.00 0.01 0.01 0.01 0.01 0.01 0.01 0.01 0.01 0.01 0.01 0.00 0.00 0.00 0.00 0.00 0.00 0.00 0.00 0.00 0.00 0.00 0.00 0.00 0.00 0.00
0.00 0.00 0.00 0.00 0.00 0.00 0.00 0.00 0.00 0.00 0.00 0.00 0.00 0.00 0.00 0.00 0.00 0.00 0.00 0.00 0.00 0.00 0.00 0.00 0.00 0.01 0.01 0.01 0.01 0.01 0.01 0.01 0.01 0.00 0.00 0.00 0.00 0.00 0.00 0.00 0.00 0.00 0.00 0.00 0.00 0.00 0.00 0.00 0.00
0.00 0.00 0.00 0.00 0.00 0.00 0.00 0.00 0.00 0.00 0.00 0.00 0.00 0.00 0.00 0.00 0.00 0.00 0.00 0.00 0.00 0.00 0.00 0.00 0.00 0.00 0.01 0.01 0.01 0.01 0.01 0.01 0.00 0.00 0.00 0.00 0.00 0.00 0.00 0.00 0.00 0.00 0.00 0.00 0.00 0.00 0.00 0.00 0.00
0.00 0.00 0.00 0.00 0.00 0.00 0.00 0.00 0.00 0.00 0.00 0.00 0.00 0.00 0.00 0.00 0.00 0.00 0.00 0.00 0.00 0.00 0.00 0.00 0.00 0.00 0.00 0.00 0.01 0.00 0.00 0.00 0.00 0.00 0.00 0.00 0.00 0.00 0.00 0.00 0.00 0.00 0.00 0.00 0.00 0.00 0.00 0.00 0.00
0.00 0.00 0.00 0.00 0.00 0.00 0.00 0.00 0.00 0.00 0.00 0.00 0.00 0.00 0.00 0.00 0.00 0.00 0.00 0.00 0.00 0.00 0.00 0.00 0.00 0.00 0.00 0.00 0.00 0.00 0.00 0.00 0.00 0.00 0.00 0.00 0.00 0.00 0.00 0.00 0.00 0.00 0.00 0.00 0.01 0.01 0.00 0.00 0.00
0.00 0.00 0.00 0.00 0.00 0.00 0.00 0.00 0.00 0.00 0.00 0.00 0.00 0.00 0.00 0.00 0.00 0.00 0.00 0.00 0.00 0.00 0.00 0.00 0.00 0.00 0.00 0.00 0.00 0.00 0.00 0.00 0.00 0.00 0.00 0.00 0.00 0.00 0.00 0.00 0.00 0.00 0.00 0.00 0.00 0.00 0.00 0.00 0.00
0.00 0.00 0.00 0.00 0.00 0.00 0.00 0.00 0.00 0.00 0.00 0.00 0.00 0.00 0.00 0.00 0.00 0.00 0.00 0.00 0.00 0.00 0.00 0.00 0.00 0.00 0.00 0.00 0.00 0.00 0.00 0.00 0.00 0.00 0.00 0.00 0.00 0.00 0.00 0.00 0.00 0.00 0.00 0.00 0.00 0.00 0.00 0.00 0.00
0.00 0.00 0.00 0.00 0.00 0.00 0.00 0.00 0.00 0.00 0.00 0.00 0.00 0.00 0.00 0.00 0.00 0.00 0.00 0.00 0.00 0.00 0.00 0.00 0.00 0.00 0.00 0.00 0.00 0.00 0.00 0.00 0.00 0.00 0.00 0.00 0.00 0.00 0.00 0.00 0.00 0.00 0.00 0.00 0.00 0.00 0.00 0.00 0.00
0.00 0.00 0.00 0.00 0.00 0.00 0.00 0.00 0.00 0.00 0.00 0.00 0.00 0.00 0.00 0.00 0.00 0.00 0.00 0.00 0.00 0.00 0.00 0.00 0.00 0.00 0.00 0.00 0.00 0.00 0.00 0.00 0.00 0.00 0.00 0.00 0.00 0.00 0.00 0.00 0.00 0.00 0.00 0.00 0.00 0.00 0.00 0.00 0.00
0.00 0.00 0.00 0.00 0.00 0.00 0.00 0.00 0.00 0.00 0.00 0.00 0.00 0.00 0.00 0.00 0.00 0.00 0.00 0.00 0.00 0.00 0.00 0.00 0.00 0.00 0.00 0.00 0.00 0.00 0.00 0.00 0.00 0.00 0.00 0.00 0.00 0.00 0.00 0.00 0.00 0.00 0.00 0.00 0.00 0.00 0.00 0.00 0.00
0.00 0.00 0.00 0.00 0.00 0.00 0.00 0.00 0.00 0.00 0.00 0.00 0.00 0.00 0.00 0.00 0.00 0.00 0.00 0.00 0.00 0.00 0.00 0.00 0.00 0.00 0.00 0.00 0.00 0.00 0.00 0.00 0.00 0.00 0.00 0.00 0.00 0.00 0.00 0.00 0.00 0.00 0.00 0.00 0.00 0.00 0.00 0.00 0.00
0.00 0.00 0.00 0.00 0.00 0.00 0.00 0.00 0.00 0.00 0.00 0.00 0.00 0.00 0.00 0.00 0.00 0.00 0.00 0.00 0.00 0.00 0.00 0.00 0.00 0.00 0.00 0.00 0.00 0.00 0.00 0.00 0.00 0.00 0.00 0.00 0.00 0.00 0.00 0.00 0.00 0.00 0.00 0.00 0.00 0.00 0.00 0.00 0.00
0.00 0.00 0.00 0.00 0.00 0.00 0.00 0.00 0.00 0.00 0.00 0.00 0.00 0.00 0.00 0.00 0.00 0.00 0.00 0.00 0.00 0.00 0.00 0.00 0.00 0.00 0.00 0.00 0.00 0.00 0.00 0.00 0.00 0.00 0.00 0.00 0.00 0.00 0.00 0.00 0.00 0.00 0.00 0.00 0.00 0.00 0.00 0.00 0.00
0.00 0.00 0.00 0.00 0.00 0.00 0.00 0.00 0.00 0.00 0.00 0.00 0.00 0.00 0.00 0.00 0.00 0.00 0.00 0.00 0.00 0.00 0.00 0.00 0.00 0.00 0.00 0.00 0.00 0.00 0.00 0.00 0.00 0.00 0.00 0.00 0.00 0.00 0.00 0.00 0.00 0.00 0.00 0.00 0.00 0.00 0.00 0.00 0.00
0.00 0.00 0.00 0.00 0.00 0.00 0.00 0.00 0.00 0.00 0.00 0.00 0.00 0.00 0.00 0.00 0.00 0.00 0.00 0.00 0.00 0.00 0.00 0.00 0.00 0.00 0.00 0.00 0.00 0.00 0.00 0.00 0.00 0.00 0.00 0.00 0.00 0.00 0.00 0.00 0.00 0.00 0.00 0.00 0.00 0.00 0.00 0.00 0.00
0.00 0.00 0.00 0.00 0.00 0.00 0.00 0.00 0.00 0.00 0.00 0.00 0.00 0.00 0.00 0.00 0.00 0.00 0.00 0.00 0.00 0.00 0.00 0.00 0.00 0.00 0.00 0.00 0.00 0.00 0.00 0.00 0.00 0.00 0.00 0.00 0.00 0.00 0.00 0.00 0.00 0.00 0.00 0.00 0.00 0.00 0.00 0.00 0.00
MSLP
1014.54 1014.87 1015.42 1016.12 1016.90 1017.66 1018.30 1018.76 1019.02 1019.09 1019.03 1018.91 1018.77 1018.68 1018.66 1018.71 1018.82 1018.94 1019.09 1019.23 1019.38 1019.55 1019.76 1020.03 1020.35 1020.70 1021.06 1021.39 1021.67 1021.86 1021.99 1022.06 1022.10 1022.14 1022.19 1022.26 1022.34 1022.41 1022.46 1022.47 1022.42 1022.33 1022.21 1022.08 1021.95 1021.83 1021.73 1021.63 1021.52
1014.78 1015.24 1015.91 1016.70 1017.51 1018.24 1018.79 1019.12 1019.22 1019.13 1018.92 1018.68 1018.49 1018.38 1018.39 1018.50 1018.67 1018.87 1019.07 1019.25 1019.42 1019.60 1019.82 1020.09 1020.42 1020.79 1021.17 1021.53 1021.83 1022.05 1022.20 1022.29 1022.34 1022.40 1022.46 1022.55 1022.65 1022.74 1022.80 1022.82 1022.78 1022.70 1022.59 1022.47 1022.36 1022.26 1022.18 1022.10 1022.01
1015.12 1015.70 1016.45 1017.28 1018.07 1018.73 1019.17 1019.35 1019.31 1019.08 1018.77 1018.46 1018.25 1018.17 1018.22 1018.40 1018.64 1018.90 1019.14 1019.35 1019.53 1019.71 1019.93 1020.20 1020.53 1020.91 1021.31 1021.68 1022.00 1022.24 1022.41 1022.51 1022.58 1022.65 1022.72 1022.82 1022.92 1023.02 1023.08 1023.10 1023.05 1022.97 1022.86 1022.75 1022.65 1022.58 1022.52 1022.47 1022.40
1015.57 1016.22 1017.01 1017.82 1018.55 1019.11 1019.42 1019.47 1019.30 1018.98 1018.61 1018.29 1018.10 1018.06 1018.19 1018.43 1018.73 1019.03 1019.30 1019.52 1019.70 1019.87 1020.08 1020.34 1020.67 1021.06 1021.46 1021.85 1022.18 1022.43 1022.61 1022.72 1022.79 1022.86 1022.95 1023.05 1023.15 1023.24 1023.30 1023.30 1023.26 1023.16 1023.05 1022.94 1022.85 1022.79 1022.76 1022.73 1022.68
1016.09 1016.79 1017.57 1018.32 1018.95 1019.38 1019.56 1019.49 1019.23 1018.86 1018.48 1018.19 1018.06 1018.09 1018.29 1018.58 1018.93 1019.25 1019.51 1019.72 1019.88 1020.04 1020.23 1020.49 1020.83 1021.22 1021.63 1022.02 1022.35 1022.60 1022.77 1022.88 1022.96 1023.03 1023.12 1023.22 1023.33 1023.42 1023.47 1023.47 1023.41 1023.31 1023.19 1023.08 1022.99 1022.93 1022.90 1022.88 1022.85
1016.68 1017.38 1018.11 1018.76 1019.26 1019.55 1019.60 1019.44 1019.13 1018.75 1018.41 1018.19 1018.13 1018.25 1018.50 1018.84 1019.19 1019.50 1019.75 1019.92 1020.05 1020.19 1020.37 1020.62 1020.96 1021.35 1021.76 1022.15 1022.47 1022.72 1022.88 1022.98 1023.05 1023.12 1023.22 1023.33 1023.45 1023.55 1023.61 1023.61 1023.54 1023.44 1023.31 1023.18 1023.07 1023.01 1022.97 1022.95 1022.91
1017.31 1017.97 1018.60 1019.13 1019.49 1019.64 1019.58 1019.35 1019.02 1018.68 1018.41 1018.27 1018.31 1018.50 1018.80 1019.15 1019.49 1019.76 1019.95 1020.08 1020.17 1020.27 1020.44 1020.69 1021.03 1021.42 1021.84 1022.22 1022.53 1022.75 1022.90 1022.99 1023.06 1023.13 1023.23 1023.36 1023.50 1023.62 1023.70 1023.71 1023.65 1023.54 1023.40 1023.26 1023.14 1023.04 1022.98 1022.93 1022.88
1017.92 1018.51 1019.04 1019.43 1019.65 1019.68 1019.53 1019.26 1018.94 1018.65 1018.47 1018.43 1018.55 1018.80 1019.13 1019.47 1019.76 1019.97 1020.09 1020.15 1020.19 1020.27 1020.42 1020.67 1021.01 1021.41 1021.82 1022.19 1022.49 1022.70 1022.83 1022.91 1022.97 1023.06 1023.17 1023.32 1023.49 1023.64 1023.74 1023.77 1023.73 1023.62 1023.47 1023.31 1023.17 1023.04 1022.94 1022.86 1022.78
1018.48 1018.99 1019.40 1019.65 1019.74 1019.67 1019.46 1019.18 1018.89 1018.67 1018.58 1018.63 1018.82 1019.10 1019.43 1019.73 1019.96 1020.10 1020.14 1020.13 1020.12 1020.17 1020.31 1020.55 1020.90 1021.30 1021.71 1022.07 1022.36 1022.56 1022.68 1022.75 1022.82 1022.91 1023.05 1023.22 1023.41 1023.58 1023.71 1023.76 1023.74 1023.64 1023.50 1023.33 1023.16 1023.01 1022.88 1022.75 1022.63
1018.95 1019.37 1019.66 1019.80 1019.79 1019.63 1019.39 1019.11 1018.87 1018.72 1018.70 1018.82 1019.05 1019.35 1019.65 1019.90 1020.06 1020.11 1020.08 1020.01 1019.96 1019.98 1020.10 1020.35 1020.70 1021.11 1021.51 1021.88 1022.16 1022.35 1022.48 1022.56 1022.63 1022.74 1022.89 1023.08 1023.28 1023.47 1023.61 1023.68 1023.67 1023.59 1023.45 1023.29 1023.11 1022.95 1022.79 1022.63 1022.47
1019.31 1019.64 1019.84 1019.88 1019.79 1019.59 1019.33 1019.07 1018.87 1018.78 1018.82 1018.97 1019.22 1019.50 1019.77 1019.95 1020.04 1020.02 1019.93 1019.81 1019.72 1019.73 1019.85 1020.10 1020.45 1020.86 1021.28 1021.64 1021.93 1022.14 1022.28 1022.37 1022.46 1022.58 1022.73 1022.92 1023.13 1023.31 1023.46 1023.53 1023.53 1023.46 1023.34 1023.19 1023.03 1022.86 1022.70 1022.52 1022.34
1019.57 1019.82 1019.94 1019.91 1019.77 1019.54 1019.28 1019.04 1018.87 1018.81 1018.87 1019.04 1019.28 1019.53 1019.74 1019.88 1019.90 1019.83 1019.70 1019.56 1019.46 1019.46 1019.58 1019.84 1020.20 1020.62 1021.04 1021.42 1021.73 1021.96 1022.12 1022.24 1022.35 1022.48 1022.63 1022.81 1022.99 1023.15 1023.28 1023.34 1023.34 1023.28 1023.18 1023.06 1022.92 1022.78 1022.62 1022.45 1022.25
1019.74 1019.93 1019.99 1019.92 1019.74 1019.50 1019.24 1019.01 1018.85 1018.79 1018.85 1018.99 1019.19 1019.41 1019.58 1019.67 1019.66 1019.58 1019.43 1019.30 1019.21 1019.22 1019.35 1019.62 1019.98 1020.40 1020.84 1021.24 1021.58 1021.85 1022.05 1022.20 1022.34 1022.47 1022.61 1022.76 1022.91 1023.03 1023.12 1023.16 1023.15 1023.10 1023.02 1022.93 1022.83 1022.72 1022.58 1022.42 1022.21
1019.87 1020.01 1020.03 1019.93 1019.73 1019.48 1019.21 1018.96 1018.78 1018.70 1018.71 1018.81 1018.96 1019.13 1019.27 1019.34 1019.34 1019.28 1019.17 1019.06 1019.01 1019.05 1019.20 1019.47 1019.83 1020.26 1020.71 1021.14 1021.52 1021.83 1022.08 1022.28 1022.44 1022.58 1022.72 1022.83 1022.93 1023.00 1023.04 1023.04 1023.02 1022.97 1022.92 1022.86 1022.79 1022.71 1022.60 1022.44 1022.23
1020.01 1020.11 1020.09 1019.96 1019.75 1019.47 1019.17 1018.88 1018.65 1018.50 1018.44 1018.48 1018.58 1018.71 1018.84 1018.93 1018.97 1018.96 1018.92 1018.88 1018.88 1018.95 1019.12 1019.40 1019.77 1020.20 1020.66 1021.11 1021.53 1021.89 1022.20 1022.44 1022.64 1022.80 1022.92 1023.01 1023.07 1023.09 1023.08 1023.05 1023.00 1022.95 1022.91 1022.87 1022.83 1022.78 1022.68 1022.52 1022.30
1020.18 1020.25 1020.20 1020.04 1019.79 1019.47 1019.11 1018.75 1018.43 1018.19 1018.05 1018.00 1018.05 1018.16 1018.30 1018.44 1018.55 1018.63 1018.69 1018.74 1018.81 1018.93 1019.13 1019.41 1019.77 1020.20 1020.66 1021.14 1021.59 1022.00 1022.36 1022.66 1022.90 1023.09 1023.21 1023.28 1023.31 1023.29 1023.25 1023.18 1023.12 1023.07 1023.03 1023.00 1022.98 1022.92 1022.82 1022.65 1022.40
1020.40 1020.43 1020.35 1020.16 1019.87 1019.48 1019.04 1018.58 1018.14 1017.79 1017.54 1017.41 1017.41 1017.51 1017.68 1017.89 1018.11 1018.30 1018.48 1018.63 1018.78 1018.95 1019.18 1019.46 1019.81 1020.23 1020.69 1021.17 1021.65 1022.11 1022.52 1022.88 1023.16 1023.38 1023.52 1023.60 1023.61 1023.58 1023.52 1023.45 1023.38 1023.32 1023.28 1023.25 1023.21 1023.15 1023.03 1022.83 1022.54
1020.64 1020.65 1020.54 1020.31 1019.95 1019.48 1018.94 1018.35 1017.79 1017.30 1016.94 1016.73 1016.68 1016.78 1017.00 1017.30 1017.64 1017.96 1018.26 1018.52 1018.76 1018.98 1019.23 1019.51 1019.85 1020.25 1020.70 1021.18 1021.68 1022.17 1022.63 1023.03 1023.37 1023.62 1023.80 1023.90 1023.93 1023.91 1023.86 1023.79 1023.73 1023.67 1023.62 1023.58 1023.53 1023.43 1023.28 1023.04 1022.72
1020.88 1020.87 1020.73 1020.46 1020.03 1019.47 1018.81 1018.09 1017.39 1016.77 1016.29 1016.00 1015.91 1016.02 1016.30 1016.69 1017.14 1017.59 1018.02 1018.38 1018.70 1018.97 1019.24 1019.52 1019.84 1020.22 1020.65 1021.13 1021.64 1022.15 1022.64 1023.09 1023.46 1023.76 1023.98 1024.12 1024.19 1024.22 1024.20 1024.16 1024.11 1024.07 1024.02 1023.96 1023.88 1023.75 1023.56 1023.29 1022.94
1021.07 1021.05 1020.90 1020.59 1020.11 1019.46 1018.68 1017.83 1016.98 1016.23 1015.64 1015.27 1015.15 1015.27 1015.59 1016.07 1016.62 1017.19 1017.72 1018.19 1018.57 1018.89 1019.18 1019.46 1019.76 1020.12 1020.54 1021.01 1021.52 1022.04 1022.55 1023.02 1023.43 1023.77 1024.04 1024.23 1024.36 1024.43 1024.47 1024.48 1024.47 1024.44 1024.39 1024.33 1024.22 1024.06 1023.84 1023.55 1023.18
1021.17 1021.18 1021.03 1020.70 1020.17 1019.44 1018.56 1017.59 1016.62 1015.75 1015.06 1014.62 1014.46 1014.57 1014.93 1015.47 1016.10 1016.76 1017.38 1017.92 1018.36 1018.72 1019.02 1019.31 1019.61 1019.95 1020.35 1020.81 1021.31 1021.84 1022.35 1022.84 1023.28 1023.65 1023.96 1024.20 1024.39 1024.53 1024.63 1024.69 1024.72 1024.72 1024.69 1024.62 1024.50 1024.33 1024.09 1023.80 1023.43
1021.20 1021.24 1021.11 1020.79 1020.23 1019.45 1018.50 1017.43 1016.35 1015.37 1014.58 1014.07 1013.87 1013.97 1014.34 1014.91 1015.60 1016.31 1016.99 1017.58 1018.06 1018.46 1018.78 1019.07 1019.38 1019.72 1020.12 1020.57 1021.06 1021.58 1022.09 1022.58 1023.02 1023.42 1023.76 1024.05 1024.29 1024.48 1024.64 1024.75 1024.83 1024.86 1024.85 1024.78 1024.66 1024.49 1024.27 1023.99 1023.66
1021.16 1021.25 1021.18 1020.87 1020.32 1019.51 1018.50 1017.35 1016.19 1015.12 1014.25 1013.67 1013.41 1013.48 1013.84 1014.41 1015.11 1015.86 1016.56 1017.18 1017.69 1018.11 1018.46 1018.77 1019.09 1019.44 1019.84 1020.29 1020.78 1021.29 1021.79 1022.27 1022.71 1023.11 1023.47 1023.79 1024.06 1024.30 1024.51 1024.66 1024.78 1024.83 1024.84 1024.78 1024.68 1024.52 1024.32 1024.08 1023.80
1021.09 1021.25 1021.23 1020.97 1020.43 1019.61 1018.57 1017.37 1016.14 1015.00 1014.07 1013.42 1013.10 1013.12 1013.44 1013.98 1014.66 1015.40 1016.10 1016.73 1017.26 1017.70 1018.07 1018.41 1018.75 1019.13 1019.55 1020.01 1020.50 1020.99 1021.49 1021.95 1022.38 1022.77 1023.13 1023.46 1023.75 1024.02 1024.25 1024.43 1024.57 1024.64 1024.66 1024.62 1024.52 1024.39 1024.22 1024.02 1023.80
1021.02 1021.25 1021.30 1021.08 1020.57 1019.75 1018.69 1017.46 1016.19 1014.99 1013.99 1013.28 1012.90 1012.86 1013.12 1013.61 1014.24 1014.94 1015.62 1016.23 1016.77 1017.22 1017.62 1017.99 1018.37 1018.78 1019.22 1019.70 1020.20 1020.70 1021.18 1021.63 1022.04 1022.42 1022.77 1023.09 1023.38 1023.66 1023.89 1024.09 1024.22 1024.30 1024.32 1024.28 1024.20 1024.08 1023.94 1023.78 1023.61
1020.96 1021.26 1021.36 1021.18 1020.69 1019.89 1018.82 1017.57 1016.26 1015.03 1013.98 1013.21 1012.77 1012.66 1012.84 1013.26 1013.83 1014.47 1015.11 1015.70 1016.22 1016.69 1017.11 1017.51 1017.93 1018.38 1018.86 1019.36 1019.87 1020.37 1020.85 1021.29 1021.69 1022.06 1022.39 1022.70 1022.98 1023.25 1023.47 1023.66 1023.78 1023.85 1023.85 1023.80 1023.72 1023.60 1023.48 1023.35 1023.21
1020.92 1021.25 1021.38 1021.22 1020.74 1019.94 1018.87 1017.61 1016.29 1015.03 1013.95 1013.14 1012.64 1012.46 1012.57 1012.91 1013.41 1013.98 1014.56 1015.11 1015.62 1016.09 1016.53 1016.96 1017.42 1017.90 1018.42 1018.95 1019.49 1020.00 1020.49 1020.93 1021.32 1021.67 1021.99 1022.29 1022.56 1022.81 1023.01 1023.17 1023.28 1023.32 1023.29 1023.22 1023.11 1022.98 1022.86 1022.74 1022.62
1020.84 1021.17 1021.29 1021.13 1020.64 1019.83 1018.76 1017.51 1016.19 1014.93 1013.84 1013.00 1012.46 1012.22 1012.27 1012.53 1012.95 1013.45 1013.97 1014.48 1014.97 1015.42 1015.87 1016.33 1016.82 1017.34 1017.89 1018.46 1019.02 1019.55 1020.05 1020.50 1020.90 1021.25 1021.57 1021.86 1022.11 1022.34 1022.53 1022.66 1022.73 1022.73 1022.67 1022.57 1022.42 1022.27 1022.12 1021.98 1021.86
1020.67 1020.96 1021.04 1020.83 1020.31 1019.49 1018.42 1017.18 1015.88 1014.65 1013.57 1012.74 1012.18 1011.92 1011.91 1012.10 1012.45 1012.88 1013.34 1013.80 1014.26 1014.70 1015.15 1015.62 1016.14 1016.68 1017.26 1017.85 1018.44 1019.00 1019.52 1019.99 1020.40 1020.77 1021.09 1021.38 1021.63 1021.85 1022.02 1022.12 1022.16 1022.12 1022.02 1021.87 1021.69 1021.50 1021.31 1021.14 1021.00
1020.37 1020.57 1020.56 1020.28 1019.72 1018.87 1017.81 1016.61 1015.36 1014.18 1013.16 1012.36 1011.82 1011.54 1011.50 1011.65 1011.93 1012.29 1012.69 1013.10 1013.52 1013.94 1014.38 1014.86 1015.38 1015.95 1016.55 1017.16 1017.77 1018.36 1018.90 1019.39 1019.83 1020.22 1020.56 1020.86 1021.11 1021.32 1021.47 1021.56 1021.56 1021.50 1021.36 1021.17 1020.94 1020.70 1020.47 1020.27 1020.09
Thickness
5757 5760 5762 5758 5746 5732 5722 5724 5730 5728 5730 5734 5734 5733 5731 5728 5723 5715 5723 5726 5723 5720 5715 5709 5706 5703 5700 5698 5695 5693 5692 5690 5689 5688 5687 5686 5685 5684 5683 5682 5682 5682 5681 5681 5681 5680 5680 5680 5681
5759 5761 5760 5753 5736 5720 5718 5727 5727 5729 5732 5733 5732 5732 5731 5729 5730 5727 5724 5722 5720 5717 5713 5709 5703 5700 5697 5695 5692 5690 5688 5686 5685 5683 5682 5681 5679 5678 5677 5676 5676 5675 5675 5674 5674 5674 5674 5674 5674
5760 5761 5754 5744 5730 5724 5720 5728 5730 5731 5733 5733 5731 5732 5731 5727 5728 5727 5725 5721 5718 5715 5711 5706 5701 5697 5694 5692 5689 5686 5684 5682 5680 5678 5677 5675 5674 5673 5671 5670 5670 5669 5668 5668 5667 5667 5667 5667 5667
5761 5757 5750 5737 5723 5725 5729 5731 5731 5730 5731 5732 5732 5729 5729 5727 5727 5726 5722 5719 5717 5713 5709 5703 5698 5695 5692 5688 5686 5683 5680 5678 5676 5674 5672 5671 5669 5667 5666 5665 5664 5663 5662 5662 5661 5661 5660 5661 5661
5759 5750 5735 5725 5722 5726 5731 5731 5731 5730 5729 5730 5730 5727 5726 5725 5724 5723 5720 5718 5716 5712 5707 5702 5696 5692 5689 5685 5682 5679 5677 5674 5672 5670 5668 5666 5664 5662 5660 5659 5658 5657 5656 5656 5655 5655 5655 5654 5654
5749 5744 5728 5719 5720 5725 5730 5730 5731 5729 5729 5728 5727 5726 5726 5724 5722 5720 5718 5716 5713 5709 5704 5699 5693 5690 5686 5682 5679 5676 5673 5671 5668 5666 5664 5662 5659 5657 5655 5654 5653 5652 5651 5650 5650 5649 5649 5649 5649
5741 5733 5723 5720 5718 5721 5727 5731 5730 5728 5726 5727 5728 5724 5726 5724 5719 5717 5716 5713 5710 5706 5702 5698 5692 5687 5683 5680 5676 5673 5670 5667 5664 5662 5659 5657 5655 5653 5651 5649 5648 5646 5646 5645 5644 5644 5643 5643 5643
5742 5733 5719 5719 5717 5718 5727 5728 5728 5726 5726 5727 5726 5723 5723 5721 5716 5714 5711 5709 5707 5703 5699 5696 5691 5687 5682 5678 5673 5670 5666 5663 5660 5658 5655 5652 5650 5648 5646 5644 5643 5641 5640 5640 5639 5638 5638 5637 5636
5738 5725 5715 5716 5716 5720 5725 5724 5724 5724 5724 5723 5724 5723 5718 5714 5712 5709 5705 5702 5700 5698 5697 5693 5689 5685 5680 5676 5671 5667 5663 5660 5657 5654 5651 5648 5647 5645 5643 5640 5638 5636 5635 5634 5633 5633 5632 5631 5631
5730 5717 5717 5722 5723 5722 5722 5721 5722 5720 5719 5720 5720 5718 5713 5710 5709 5707 5704 5700 5697 5695 5694 5691 5687 5682 5678 5673 5668 5664 5661 5657 5654 5651 5648 5646 5644 5641 5639 5635 5633 5632 5630 5629 5628 5627 5627 5627 5628
5724 5717 5719 5720 5722 5721 5718 5719 5720 5717 5716 5721 5720 5719 5713 5708 5707 5707 5705 5702 5698 5695 5691 5688 5684 5680 5675 5671 5666 5662 5658 5654 5651 5648 5645 5642 5640 5637 5635 5632 5630 5628 5626 5626 5624 5624 5624 5623 5622
5718 5717 5718 5719 5716 5715 5715 5716 5716 5715 5720 5722 5720 5717 5712 5708 5707 5706 5704 5701 5697 5693 5689 5686 5682 5677 5673 5669 5664 5659 5655 5651 5647 5643 5641 5639 5636 5633 5631 5629 5626 5624 5622 5621 5620 5619 5618 5617 5617
5712 5711 5713 5713 5711 5712 5711 5712 5713 5717 5720 5717 5714 5711 5710 5709 5707 5705 5703 5699 5695 5691 5687 5683 5679 5675 5670 5666 5661 5657 5652 5648 5644 5640 5636 5634 5631 5629 5627 5624 5621 5619 5617 5616 5615 5615 5614 5613 5612
5707 5708 5708 5709 5708 5707 5705 5709 5706 5717 5717 5713 5710 5709 5709 5707 5705 5703 5698 5695 5692 5689 5686 5682 5677 5672 5667 5663 5658 5653 5649 5644 5640 5636 5632 5629 5626 5623 5621 5619 5616 5614 5612 5610 5609 5609 5607 5607 5606
5703 5701 5704 5705 5704 5704 5701 5703 5709 5718 5712 5710 5710 5709 5705 5704 5702 5700 5697 5694 5691 5687 5684 5679 5674 5669 5664 5660 5654 5649 5645 5640 5636 5632 5628 5624 5621 5618 5615 5613 5611 5608 5606 5604 5603 5603 5601 5600 5600
5697 5694 5693 5700 5699 5697 5694 5700 5714 5714 5708 5708 5710 5709 5705 5702 5700 5698 5695 5691 5688 5685 5680 5676 5670 5666 5661 5656 5650 5645 5641 5636 5632 5627 5623 5619 5616 5612 5609 5607 5605 5602 5600 5599 5597 5596 5595 5595 5594
5688 5687 5686 5692 5695 5693 5692 5698 5712 5709 5706 5707 5709 5708 5705 5702 5698 5696 5692 5688 5685 5681 5677 5672 5667 5662 5658 5652 5646 5641 5636 5632 5627 5622 5618 5614 5610 5607 5604 5602 5599 5596 5594 5592 5590 5589 5588 5587 5586
5679 5681 5681 5683 5691 5687 5688 5698 5710 5711 5705 5707 5709 5707 5704 5701 5698 5694 5689 5685 5681 5678 5674 5669 5663 5658 5653 5647 5641 5636 5631 5626 5622 5618 5614 5609 5606 5602 5599 5596 5593 5590 5587 5585 5583 5581 5579 5577 5576
5677 5674 5675 5682 5685 5680 5688 5697 5708 5713 5708 5706 5707 5706 5703 5701 5698 5691 5685 5681 5677 5673 5669 5665 5660 5654 5649 5643 5638 5633 5627 5622 5617 5612 5608 5604 5600 5596 5593 5589 5586 5583 5580 5577 5575 5572 5570 5569 5566
5668 5668 5673 5679 5676 5674 5685 5695 5709 5711 5708 5707 5707 5706 5703 5699 5693 5686 5681 5677 5673 5669 5665 5660 5655 5650 5645 5641 5636 5630 5623 5617 5612 5606 5602 5598 5594 5590 5586 5583 5579 5575 5572 5569 5566 5563 5561 5559 5555
5663 5665 5669 5668 5672 5672 5672 5697 5709 5709 5705 5702 5702 5702 5701 5697 5692 5685 5678 5674 5670 5665 5661 5656 5651 5646 5641 5635 5629 5621 5615 5609 5604 5600 5596 5591 5587 5583 5579 5575 5572 5567 5564 5561 5557 5553 5550 5549 5546
5660 5665 5661 5658 5659 5668 5663 5673 5705 5703 5701 5701 5701 5699 5697 5693 5689 5684 5677 5671 5666 5661 5656 5651 5646 5641 5635 5630 5625 5620 5615 5609 5604 5598 5591 5585 5580 5576 5571 5567 5563 5559 5556 5552 5548 5544 5540 5537 5536
5660 5656 5653 5651 5653 5656 5661 5658 5693 5698 5698 5701 5701 5698 5693 5689 5685 5680 5674 5668 5663 5656 5650 5645 5640 5635 5630 5625 5621 5616 5611 5606 5598 5591 5585 5580 5574 5569 5564 5559 5555 5551 5547 5543 5538 5534 5530 5527 5523
5648 5646 5642 5642 5647 5648 5659 5655 5679 5697 5694 5696 5697 5694 5689 5684 5679 5675 5669 5663 5656 5650 5643 5639 5635 5630 5625 5620 5615 5611 5606 5599 5591 5585 5580 5574 5568 5561 5556 5551 5547 5542 5538 5533 5529 5524 5520 5516 5513
5643 5643 5640 5642 5643 5652 5649 5646 5672 5694 5690 5686 5685 5686 5684 5680 5674 5669 5664 5657 5652 5645 5639 5634 5630 5625 5619 5614 5610 5605 5599 5593 5587 5581 5575 5569 5562 5556 5550 5543 5539 5534 5529 5524 5519 5515 5511 5507 5503
5643 5644 5638 5634 5641 5649 5640 5647 5680 5688 5683 5679 5678 5678 5676 5674 5670 5665 5660 5654 5649 5642 5636 5630 5626 5620 5614 5609 5604 5599 5592 5586 5581 5574 5569 5563 5557 5550 5543 5536 5531 5526 5520 5515 5510 5506 5502 5497 5493
5636 5638 5644 5636 5630 5629 5647 5657 5674 5682 5679 5677 5675 5673 5672 5669 5665 5660 5656 5651 5646 5640 5633 5628 5622 5616 5609 5604 5598 5592 5586 5579 5573 5567 5561 5555 5548 5541 5534 5528 5523 5517 5512 5506 5501 5497 5493 5488 5483
5636 5637 5627 5625 5622 5625 5641 5649 5663 5675 5676 5674 5672 5670 5668 5663 5660 5655 5651 5646 5641 5636 5629 5623 5617 5611 5605 5598 5592 5586 5579 5573 5566 5560 5553 5547 5540 5533 5526 5520 5514 5509 5503 5498 5493 5488 5483 5478 5473
5623 5623 5628 5629 5627 5626 5629 5650 5670 5670 5669 5666 5667 5665 5662 5659 5655 5651 5646 5642 5636 5630 5623 5617 5611 5605 5599 5592 5586 5578 5572 5565 5559 5552 5546 5538 5531 5524 5518 5512 5506 5500 5494 5489 5484 5479 5474 5469 5464
5631 5633 5629 5622 5622 5620 5626 5646 5670 5664 5662 5658 5658 5657 5656 5653 5649 5646 5641 5636 5630 5624 5618 5612 5606 5600 5593 5586 5579 5572 5565 5557 5551 5544 5537 5530 5523 5516 5509 5503 5497 5491 5485 5480 5474 5470 5464 5458 5453